TimeAKDT,TemperatureF,Dew PointF,Humidity,Sea Level PressureIn,VisibilityMPH,Wind Direction,Wind SpeedMPH,Gust SpeedMPH,PrecipitationIn,Events,Conditions,WindDirDegrees,DateUTC
12:53 AM,30.0,26.1,85,30.29,10.0,NNE,4.6,-,N/A,,Clear,20,2012-10-25 08:53:00
1:53 AM,28.9,26.1,89,30.30,10.0,NNE,6.9,-,N/A,,Clear,30,2012-10-25 09:53:00
2:53 AM,30.0,25.0,82,30.32,10.0,NNE,8.1,-,N/A,,Clear,30,2012-10-25 10:53:00
3:53 AM,30.9,24.1,76,30.31,10.0,NNE,6.9,-,N/A,,Clear,30,2012-10-25 11:53:00
4:53 AM,30.0,23.0,75,30.31,10.0,NNE,8.1,-,N/A,,Clear,30,2012-10-25 12:53:00
6:53 AM,28.9,23.0,78,30.30,10.0,NNE,5.8,-,N/A,,Clear,30,2012-10-25 14:53:00
7:53 AM,30.0,24.1,79,30.31,10.0,NNW,4.6,-,N/A,,Clear,330,2012-10-25 15:53:00
8:53 AM,30.9,24.1,76,30.32,10.0,ENE,4.6,-,N/A,,Clear,60,2012-10-25 16:53:00
9:53 AM,36.0,24.1,62,30.34,10.0,NE,4.6,-,N/A,,Clear,50,2012-10-25 17:53:00
10:53 AM,39.0,24.1,55,30.32,10.0,ENE,5.8,-,N/A,,Clear,60,2012-10-25 18:53:00
11:53 AM,42.1,23.0,47,30.32,10.0,NE,8.1,-,N/A,,Clear,40,2012-10-25 19:53:00
12:53 PM,44.1,19.0,37,30.31,10.0,NE,6.9,-,N/A,,Clear,50,2012-10-25 20:53:00
1:53 PM,43.0,19.9,40,30.31,10.0,NE,4.6,-,N/A,,Clear,40,2012-10-25 21:53:00
2:53 PM,44.1,19.9,38,30.32,10.0,NE,5.8,-,N/A,,Partly Cloudy,50,2012-10-25 22:53:00
3:53 PM,39.9,19.0,43,30.31,10.0,NE,3.5,-,N/A,,Clear,50,2012-10-25 23:53:00
4:53 PM,37.0,19.9,50,30.31,10.0,NNE,5.8,-,N/A,,Clear,20,2012-10-26 00:53:00
5:53 PM,35.1,24.1,64,30.30,10.0,NNE,4.6,-,N/A,,Overcast,30,2012-10-26 01:53:00
6:53 PM,37.0,24.1,59,30.28,10.0,NE,4.6,-,N/A,,Overcast,50,2012-10-26 02:53:00
7:53 PM,36.0,24.1,62,30.27,10.0,NE,4.6,-,N/A,,Mostly Cloudy,50,2012-10-26 03:53:00
8:53 PM,36.0,24.1,62,30.25,10.0,NNE,9.2,-,N/A,,Scattered Clouds,30,2012-10-26 04:53:00
9:53 PM,37.0,24.1,59,30.25,10.0,NNE,12.7,-,N/A,,Overcast,30,2012-10-26 05:53:00
10:53 PM,37.0,25.0,62,30.25,10.0,NE,6.9,-,N/A,,Overcast,40,2012-10-26 06:53:00
11:53 PM,37.9,24.1,57,30.25,10.0,NNE,8.1,-,N/A,,Overcast,30,2012-10-26 07:53:00